Orbital Elements at Epoch 2459200.5 (2020-Dec-17.0) TDB
Reference: JPL 18 (heliocentric ecliptic J2000)
Element | Value | Uncertainty (1-sigma) | Units |
e | .1872480536229268 | 4.9325e-08 | |
a | 2.23137288900486 | 1.3279e-08 | au |
q | 1.813552658631733 | 1.1616e-07 | au |
i | 7.607656842741619 | 5.0464e-06 | deg |
node | 38.41232271979243 | 3.3353e-05 | deg |
peri | 294.89479475589 | 3.6081e-05 | deg |
M | 95.43006488642551 | 1.4754e-05 | deg |
tp | 2458877.769973659425 (2020-Jan-29.26997366) | 4.8758e-05 | TDB |
period | 1217.465477162568 3.33 | 1.0868e-05 2.975e-08 | d yr |
n | .2956962696297707 | 2.6395e-09 | deg/d |
Q | 2.649193119377987 | 1.5765e-08 | au |
|
| | Orbit Determination Parameters
Additional Information
|